Time,TemperatureF,DewpointF,PressureIn,WindDirection,WindDirectionDegrees,WindSpeedMPH,WindSpeedGustMPH,Humidity,HourlyPrecipIn,Conditions,Clouds,dailyrainin,SoftwareType,DateUTC
2013-02-22 00:08:00,32.4,29.0,29.82,East,84,0.0,0.0,87,0.00,,,0.00,Wunderground v.1.13,2013-02-22 06:08:00,
2013-02-22 00:13:00,32.4,29.2,29.82,East,83,0.0,0.0,88,0.00,,,0.00,Wunderground v.1.13,2013-02-22 06:13:00,
2013-02-22 00:23:00,32.4,29.0,29.82,East,84,0.0,0.0,87,0.00,,,0.00,Wunderground v.1.13,2013-02-22 06:23:00,
2013-02-22 00:28:00,32.3,29.1,29.82,East,84,0.0,0.0,88,0.00,,,0.00,Wunderground v.1.13,2013-02-22 06:28:00,
2013-02-22 00:33:00,32.3,29.1,29.82,East,83,0.0,0.0,88,0.00,,,0.00,Wunderground v.1.13,2013-02-22 06:33:00,
2013-02-22 00:38:00,32.3,29.1,29.82,East,84,0.0,0.0,88,0.00,,,0.00,Wunderground v.1.13,2013-02-22 06:38:00,
2013-02-22 00:48:00,32.2,29.0,29.82,East,84,0.0,0.0,88,0.00,,,0.00,Wunderground v.1.13,2013-02-22 06:48:00,
2013-02-22 00:58:00,32.2,29.0,29.82,East,84,0.0,0.0,88,0.00,,,0.00,Wunderground v.1.13,2013-02-22 06:58:00,
2013-02-22 01:08:00,32.1,28.9,29.82,East,84,0.0,0.0,88,0.00,,,0.00,Wunderground v.1.13,2013-02-22 07:08:00,
2013-02-22 01:18:00,32.2,29.0,29.83,East,84,0.0,0.0,88,0.00,,,0.00,Wunderground v.1.13,2013-02-22 07:18:00,
2013-02-22 01:28:00,32.3,29.1,29.83,East,84,0.0,0.0,88,0.00,,,0.00,Wunderground v.1.13,2013-02-22 07:28:00,
2013-02-22 01:33:00,32.3,29.1,29.83,East,84,0.0,0.0,88,0.00,,,0.00,Wunderground v.1.13,2013-02-22 07:33:00,
2013-02-22 01:43:00,32.3,29.1,29.83,East,83,0.0,0.0,88,0.00,,,0.00,Wunderground v.1.13,2013-02-22 07:43:00,
2013-02-22 01:53:00,32.2,29.0,29.83,East,83,0.0,0.0,88,0.00,,,0.00,Wunderground v.1.13,2013-02-22 07:53:00,
2013-02-22 01:58:00,32.1,28.9,29.82,East,83,0.0,0.0,88,0.00,,,0.00,Wunderground v.1.13,2013-02-22 07:58:00,
2013-02-22 02:08:00,32.1,28.9,29.82,East,84,0.0,0.0,88,0.00,,,0.00,Wunderground v.1.13,2013-02-22 08:08:00,
2013-02-22 02:18:00,32.0,28.8,29.82,East,83,0.0,0.0,88,0.00,,,0.00,Wunderground v.1.13,2013-02-22 08:18:00,
2013-02-22 02:23:00,31.9,28.8,29.82,East,83,0.0,0.0,88,0.00,,,0.00,Wunderground v.1.13,2013-02-22 08:23:00,
2013-02-22 02:33:00,31.9,28.8,29.81,East,83,0.0,0.0,88,0.00,,,0.00,Wunderground v.1.13,2013-02-22 08:33:00,
2013-02-22 02:38:00,31.9,28.8,29.81,East,84,0.0,0.0,88,0.00,,,0.00,Wunderground v.1.13,2013-02-22 08:38:00,
2013-02-22 02:48:00,31.9,28.8,29.81,East,84,0.0,0.0,88,0.00,,,0.00,Wunderground v.1.13,2013-02-22 08:48:00,
2013-02-22 02:58:00,31.9,28.8,29.81,East,84,0.0,0.0,88,0.00,,,0.00,Wunderground v.1.13,2013-02-22 08:58:00,
2013-02-22 03:03:00,31.9,28.8,29.81,East,83,0.0,0.0,88,0.00,,,0.00,Wunderground v.1.13,2013-02-22 09:03:00,
2013-02-22 03:13:00,32.1,28.9,29.82,East,84,0.0,0.0,88,0.00,,,0.00,Wunderground v.1.13,2013-02-22 09:13:00,
2013-02-22 03:23:00,32.2,29.0,29.82,East,84,0.0,0.0,88,0.00,,,0.00,Wunderground v.1.13,2013-02-22 09:23:00,
2013-02-22 03:28:00,32.5,29.3,29.82,East,84,0.0,0.0,88,0.00,,,0.00,Wunderground v.1.13,2013-02-22 09:28:00,
2013-02-22 03:38:00,32.7,29.5,29.82,East,84,0.0,0.0,88,0.00,,,0.00,Wunderground v.1.13,2013-02-22 09:38:00,
2013-02-22 03:48:00,32.7,29.5,29.82,East,84,0.0,0.0,88,0.00,,,0.00,Wunderground v.1.13,2013-02-22 09:48:00,
2013-02-22 03:53:00,32.7,29.5,29.82,WSW,252,0.0,0.0,88,0.00,,,0.00,Wunderground v.1.13,2013-02-22 09:53:00,
2013-02-22 04:03:00,32.7,29.5,29.83,WSW,248,0.0,0.0,88,0.00,,,0.00,Wunderground v.1.13,2013-02-22 10:03:00,
2013-02-22 04:08:00,32.8,29.6,29.83,WSW,252,0.0,0.0,88,0.00,,,0.00,Wunderground v.1.13,2013-02-22 10:08:00,
2013-02-22 04:18:00,32.8,29.6,29.83,WSW,252,0.0,0.0,88,0.00,,,0.00,Wunderground v.1.13,2013-02-22 10:18:00,
2013-02-22 04:28:00,32.8,29.6,29.83,SSW,209,0.0,0.0,88,0.00,,,0.00,Wunderground v.1.13,2013-02-22 10:28:00,
2013-02-22 04:38:00,32.8,29.6,29.84,SSW,212,0.0,3.0,88,0.00,,,0.00,Wunderground v.1.13,2013-02-22 10:38:00,
2013-02-22 04:48:00,32.6,29.4,29.85,SW,219,4.0,4.0,88,0.00,,,0.00,Wunderground v.1.13,2013-02-22 10:48:00,
2013-02-22 04:58:00,32.5,29.3,29.86,SSW,192,4.0,5.0,88,0.00,,,0.00,Wunderground v.1.13,2013-02-22 10:58:00,
2013-02-22 05:08:00,32.5,29.3,29.86,SSW,200,5.0,5.0,88,0.00,,,0.00,Wunderground v.1.13,2013-02-22 11:08:00,
2013-02-22 05:18:00,32.5,29.3,29.86,SSW,195,4.0,4.0,88,0.00,,,0.00,Wunderground v.1.13,2013-02-22 11:18:00,
2013-02-22 05:28:00,32.5,29.3,29.87,SSW,204,4.0,4.0,88,0.00,,,0.00,Wunderground v.1.13,2013-02-22 11:28:00,
2013-02-22 05:33:00,32.5,29.3,29.87,SSW,194,4.0,4.0,88,0.00,,,0.00,Wunderground v.1.13,2013-02-22 11:33:00,
2013-02-22 05:43:00,32.5,29.3,29.87,SSW,195,4.0,4.0,88,0.00,,,0.00,Wunderground v.1.13,2013-02-22 11:43:00,
2013-02-22 05:53:00,32.5,29.3,29.88,SSW,195,4.0,4.0,88,0.00,,,0.00,Wunderground v.1.13,2013-02-22 11:53:00,
2013-02-22 05:58:00,32.6,29.4,29.88,SSW,207,4.0,5.0,88,0.00,,,0.00,Wunderground v.1.13,2013-02-22 11:58:00,
2013-02-22 06:08:00,32.9,29.7,29.89,SW,217,5.0,7.0,88,0.00,,,0.00,Wunderground v.1.13,2013-02-22 12:08:00,
2013-02-22 06:18:00,33.1,29.9,29.89,SSW,195,7.0,7.0,88,0.00,,,0.00,Wunderground v.1.13,2013-02-22 12:18:00,
2013-02-22 06:23:00,33.2,30.0,29.90,SSW,202,6.0,6.0,88,0.00,,,0.00,Wunderground v.1.13,2013-02-22 12:23:00,
2013-02-22 06:33:00,33.1,29.9,29.90,SW,218,4.0,5.0,88,0.00,,,0.00,Wunderground v.1.13,2013-02-22 12:33:00,
2013-02-22 06:43:00,33.1,29.9,29.90,SSW,207,4.0,4.0,88,0.00,,,0.00,Wunderground v.1.13,2013-02-22 12:43:00,
2013-02-22 06:48:00,33.1,29.9,29.90,SSW,209,3.0,6.0,88,0.00,,,0.00,Wunderground v.1.13,2013-02-22 12:48:00,
2013-02-22 06:58:00,33.0,29.8,29.90,SSW,199,4.0,5.0,88,0.00,,,0.00,Wunderground v.1.13,2013-02-22 12:58:00,
2013-02-22 07:08:00,33.0,29.8,29.91,SSW,202,4.0,5.0,88,0.00,,,0.00,Wunderground v.1.13,2013-02-22 13:08:00,
2013-02-22 07:18:00,33.2,30.0,29.91,SSW,210,5.0,5.0,88,0.00,,,0.00,Wunderground v.1.13,2013-02-22 13:18:00,
2013-02-22 07:28:00,33.1,29.9,29.91,SSW,202,5.0,6.0,88,0.00,,,0.00,Wunderground v.1.13,2013-02-22 13:28:00,
2013-02-22 07:38:00,33.1,29.9,29.91,SSW,201,4.0,5.0,88,0.00,,,0.00,Wunderground v.1.13,2013-02-22 13:38:00,
2013-02-22 07:43:00,33.2,30.0,29.92,SSW,196,5.0,5.0,88,0.00,,,0.00,Wunderground v.1.13,2013-02-22 13:43:00,
2013-02-22 07:48:00,33.3,30.1,29.91,SW,217,5.0,5.0,88,0.00,,,0.00,Wunderground v.1.13,2013-02-22 13:48:00,
2013-02-22 07:53:00,33.3,30.1,29.91,SSW,202,4.0,4.0,88,0.00,,,0.00,Wunderground v.1.13,2013-02-22 13:53:00,
2013-02-22 08:03:00,33.3,30.1,29.92,SSW,208,5.0,5.0,88,0.00,,,0.00,Wunderground v.1.13,2013-02-22 14:03:00,
2013-02-22 08:08:00,33.3,30.1,29.92,SSW,208,5.0,5.0,88,0.00,,,0.00,Wunderground v.1.13,2013-02-22 14:08:00,
2013-02-22 08:18:00,33.5,30.0,29.93,SSW,194,6.0,6.0,87,0.00,,,0.00,Wunderground v.1.13,2013-02-22 14:18:00,
2013-02-22 08:28:00,33.5,30.0,29.93,SSW,209,6.0,7.0,87,0.00,,,0.00,Wunderground v.1.13,2013-02-22 14:28:00,
2013-02-22 08:33:00,33.5,30.0,29.94,SSW,209,5.0,7.0,87,0.00,,,0.00,Wunderground v.1.13,2013-02-22 14:33:00,
2013-02-22 08:43:00,33.6,30.1,29.95,SSW,196,5.0,7.0,87,0.00,,,0.00,Wunderground v.1.13,2013-02-22 14:43:00,
2013-02-22 08:48:00,33.6,30.1,29.95,SW,215,6.0,6.0,87,0.00,,,0.00,Wunderground v.1.13,2013-02-22 14:48:00,
2013-02-22 08:58:00,33.7,30.2,29.95,SW,220,5.0,5.0,87,0.00,,,0.00,Wunderground v.1.13,2013-02-22 14:58:00,
2013-02-22 09:08:00,33.8,32.0,29.95,SSW,210,6.0,6.0,93,0.00,,,0.00,Wunderground v.1.13,2013-02-22 15:08:00,
2013-02-22 09:18:00,33.9,30.2,29.95,South,186,7.0,7.0,86,0.00,,,0.00,Wunderground v.1.13,2013-02-22 15:18:00,
2013-02-22 09:23:00,33.8,30.1,29.95,SSW,195,7.0,7.0,86,0.00,,,0.00,Wunderground v.1.13,2013-02-22 15:23:00,
2013-02-22 09:33:00,33.8,30.1,29.95,South,191,8.0,8.0,86,0.00,,,0.00,Wunderground v.1.13,2013-02-22 15:33:00,
2013-02-22 09:38:00,33.9,30.2,29.95,SSW,194,7.0,7.0,86,0.00,,,0.00,Wunderground v.1.13,2013-02-22 15:38:00,
2013-02-22 09:43:00,33.9,30.2,29.95,SSW,200,7.0,7.0,86,0.00,,,0.00,Wunderground v.1.13,2013-02-22 15:43:00,
2013-02-22 09:53:00,34.3,30.5,29.96,SW,217,6.0,9.0,86,0.00,,,0.00,Wunderground v.1.13,2013-02-22 15:53:00,
2013-02-22 09:58:00,34.3,30.5,29.96,SSW,196,7.0,7.0,86,0.00,,,0.00,Wunderground v.1.13,2013-02-22 15:58:00,
2013-02-22 10:08:00,34.4,30.6,29.96,SSW,198,6.0,6.0,86,0.00,,,0.00,Wunderground v.1.13,2013-02-22 16:08:00,
2013-02-22 10:13:00,34.4,30.6,29.96,SSW,195,6.0,6.0,86,0.00,,,0.00,Wunderground v.1.13,2013-02-22 16:13:00,
2013-02-22 10:23:00,34.4,30.6,29.96,South,190,6.0,6.0,86,0.00,,,0.00,Wunderground v.1.13,2013-02-22 16:23:00,
2013-02-22 10:33:00,34.4,30.6,29.96,SSW,198,6.0,6.0,86,0.00,,,0.00,Wunderground v.1.13,2013-02-22 16:33:00,
2013-02-22 10:38:00,34.4,30.6,29.97,SSW,194,6.0,6.0,86,0.00,,,0.00,Wunderground v.1.13,2013-02-22 16:38:00,
2013-02-22 10:43:00,34.4,30.6,29.97,SSW,194,6.0,6.0,86,0.00,,,0.00,Wunderground v.1.13,2013-02-22 16:43:00,
2013-02-22 10:53:00,34.5,30.7,29.97,SSW,198,6.0,6.0,86,0.00,,,0.00,Wunderground v.1.13,2013-02-22 16:53:00,
2013-02-22 10:58:00,34.7,30.9,29.97,South,180,6.0,6.0,86,0.00,,,0.00,Wunderground v.1.13,2013-02-22 16:58:00,
2013-02-22 11:08:00,35.1,31.0,29.97,South,190,6.0,6.0,85,0.08,,,0.02,Wunderground v.1.13,2013-02-22 17:08:00,
2013-02-22 11:18:00,35.5,31.4,29.97,South,179,7.0,8.0,85,0.13,,,0.04,Wunderground v.1.13,2013-02-22 17:18:00,
2013-02-22 11:28:00,36.0,31.9,29.98,SSW,192,7.0,7.0,85,0.11,,,0.06,Wunderground v.1.13,2013-02-22 17:28:00,
2013-02-22 11:38:00,36.5,32.1,29.97,SSW,192,7.0,10.0,84,0.10,,,0.07,Wunderground v.1.13,2013-02-22 17:38:00,
2013-02-22 11:48:00,36.8,32.1,29.97,SW,219,8.0,10.0,83,0.10,,,0.09,Wunderground v.1.13,2013-02-22 17:48:00,
2013-02-22 11:58:00,36.9,31.6,29.97,SSW,200,9.0,9.0,81,0.09,,,0.10,Wunderground v.1.13,2013-02-22 17:58:00,
2013-02-22 12:08:00,37.5,32.2,29.97,SW,218,6.0,6.0,81,0.08,,,0.12,Wunderground v.1.13,2013-02-22 18:08:00,
2013-02-22 12:13:00,37.5,31.9,29.97,WSW,238,6.0,7.0,80,0.10,,,0.13,Wunderground v.1.13,2013-02-22 18:13:00,
2013-02-22 12:23:00,37.2,31.3,29.97,SSW,213,8.0,8.0,79,0.11,,,0.14,Wunderground v.1.13,2013-02-22 18:23:00,
2013-02-22 12:33:00,37.1,31.2,29.97,SW,221,8.0,8.0,79,0.08,,,0.15,Wunderground v.1.13,2013-02-22 18:33:00,
2013-02-22 12:38:00,37.1,31.2,29.97,WSW,250,7.0,7.0,79,0.07,,,0.16,Wunderground v.1.13,2013-02-22 18:38:00,
2013-02-22 12:43:00,36.8,30.6,29.97,WSW,237,7.0,10.0,78,0.07,,,0.16,Wunderground v.1.13,2013-02-22 18:43:00,
2013-02-22 12:53:00,36.5,30.3,29.97,WSW,255,9.0,9.0,78,0.06,,,0.17,Wunderground v.1.13,2013-02-22 18:53:00,
2013-02-22 13:03:00,36.5,30.0,29.96,SW,228,9.0,10.0,77,0.05,,,0.18,Wunderground v.1.13,2013-02-22 19:03:00,
2013-02-22 13:08:00,36.4,29.9,29.97,SSW,194,8.0,8.0,77,0.05,,,0.18,Wunderground v.1.13,2013-02-22 19:08:00,
2013-02-22 13:18:00,36.4,29.9,29.97,SW,220,8.0,8.0,77,0.04,,,0.19,Wunderground v.1.13,2013-02-22 19:18:00,
2013-02-22 13:28:00,36.4,29.6,29.96,WSW,246,9.0,10.0,76,0.04,,,0.20,Wunderground v.1.13,2013-02-22 19:28:00,
2013-02-22 13:33:00,36.5,29.7,29.96,SW,236,8.0,8.0,76,0.04,,,0.20,Wunderground v.1.13,2013-02-22 19:33:00,
2013-02-22 13:38:00,36.5,29.7,29.96,WSW,258,8.0,10.0,76,0.04,,,0.20,Wunderground v.1.13,2013-02-22 19:38:00,
2013-02-22 13:48:00,36.9,29.7,29.96,WSW,255,8.0,8.0,75,0.00,,,0.21,Wunderground v.1.13,2013-02-22 19:48:00,
2013-02-22 13:53:00,37.0,29.5,29.97,WSW,242,8.0,8.0,74,0.00,,,0.21,Wunderground v.1.13,2013-02-22 19:53:00,
2013-02-22 14:03:00,36.8,29.0,29.96,SSW,212,9.0,10.0,73,0.00,,,0.21,Wunderground v.1.13,2013-02-22 20:03:00,
2013-02-22 14:13:00,36.6,29.4,29.97,SW,229,8.0,8.0,75,0.00,,,0.22,Wunderground v.1.13,2013-02-22 20:13:00,
2013-02-22 14:23:00,36.5,29.7,29.97,SW,230,6.0,6.0,76,0.00,,,0.22,Wunderground v.1.13,2013-02-22 20:23:00,
2013-02-22 14:28:00,36.6,29.7,29.97,SW,215,6.0,6.0,76,0.00,,,0.22,Wunderground v.1.13,2013-02-22 20:28:00,
2013-02-22 14:33:00,36.6,29.4,29.97,SW,231,5.0,5.0,75,0.00,,,0.22,Wunderground v.1.13,2013-02-22 20:33:00,
2013-02-22 14:38:00,36.7,29.8,29.97,SSW,213,6.0,7.0,76,0.00,,,0.22,Wunderground v.1.13,2013-02-22 20:38:00,
2013-02-22 14:48:00,36.6,29.4,29.97,SW,215,7.0,12.0,75,0.00,,,0.22,Wunderground v.1.13,2013-02-22 20:48:00,
2013-02-22 14:58:00,36.7,29.8,29.98,WSW,238,6.0,6.0,76,0.00,,,0.22,Wunderground v.1.13,2013-02-22 20:58:00,
2013-02-22 15:03:00,36.6,29.7,29.98,SW,226,4.0,4.0,76,0.00,,,0.22,Wunderground v.1.13,2013-02-22 21:03:00,
2013-02-22 15:08:00,36.6,29.4,29.98,WSW,238,5.0,5.0,75,0.00,,,0.22,Wunderground v.1.13,2013-02-22 21:08:00,
2013-02-22 15:18:00,36.3,29.1,29.98,West,259,6.0,7.0,75,0.00,,,0.22,Wunderground v.1.13,2013-02-22 21:18:00,
2013-02-22 15:23:00,36.0,28.8,29.99,WSW,252,6.0,6.0,75,0.00,,,0.22,Wunderground v.1.13,2013-02-22 21:23:00,
2013-02-22 15:33:00,35.9,29.1,29.99,WNW,298,6.0,6.0,76,0.00,,,0.22,Wunderground v.1.13,2013-02-22 21:33:00,
2013-02-22 15:43:00,35.4,28.9,29.99,West,277,3.0,3.0,77,0.00,,,0.22,Wunderground v.1.13,2013-02-22 21:43:00,
2013-02-22 15:48:00,35.2,28.7,29.99,WNW,284,4.0,4.0,77,0.00,,,0.22,Wunderground v.1.13,2013-02-22 21:48:00,
2013-02-22 15:58:00,35.0,28.5,29.99,WNW,288,5.0,5.0,77,0.00,,,0.22,Wunderground v.1.13,2013-02-22 21:58:00,
2013-02-22 16:08:00,34.6,27.8,29.99,West,271,5.0,7.0,76,0.00,,,0.22,Wunderground v.1.13,2013-02-22 22:08:00,
2013-02-22 16:13:00,34.4,27.3,29.99,West,268,6.0,6.0,75,0.00,,,0.22,Wunderground v.1.13,2013-02-22 22:13:00,
2013-02-22 16:23:00,34.1,27.0,29.99,West,279,5.0,7.0,75,0.00,,,0.22,Wunderground v.1.13,2013-02-22 22:23:00,
2013-02-22 16:28:00,33.9,26.8,29.99,NW,304,5.0,7.0,75,0.00,,,0.22,Wunderground v.1.13,2013-02-22 22:28:00,
2013-02-22 16:38:00,33.6,26.2,29.99,West,261,5.0,6.0,74,0.00,,,0.22,Wunderground v.1.13,2013-02-22 22:38:00,
2013-02-22 16:48:00,33.5,26.1,29.99,West,272,5.0,5.0,74,0.00,,,0.22,Wunderground v.1.13,2013-02-22 22:48:00,
2013-02-22 16:58:00,33.5,25.8,29.99,West,277,5.0,5.0,73,0.00,,,0.22,Wunderground v.1.13,2013-02-22 22:58:00,
2013-02-22 17:08:00,33.3,25.2,30.00,West,269,5.0,5.0,72,0.00,,,0.22,Wunderground v.1.13,2013-02-22 23:08:00,
2013-02-22 17:18:00,33.2,25.1,30.00,West,276,2.0,2.0,72,0.00,,,0.22,Wunderground v.1.13,2013-02-22 23:18:00,
2013-02-22 17:28:00,33.0,25.0,30.00,West,281,2.0,2.0,72,0.00,,,0.22,Wunderground v.1.13,2013-02-22 23:28:00,
2013-02-22 17:33:00,33.0,25.0,30.00,WNW,282,2.0,2.0,72,0.00,,,0.22,Wunderground v.1.13,2013-02-22 23:33:00,
2013-02-22 17:43:00,32.9,25.2,30.00,WSW,246,1.0,1.0,73,0.00,,,0.22,Wunderground v.1.13,2013-02-22 23:43:00,
2013-02-22 17:48:00,32.9,25.2,30.00,WSW,246,1.0,1.0,73,0.00,,,0.22,Wunderground v.1.13,2013-02-22 23:48:00,
2013-02-22 17:58:00,32.9,24.9,30.00,WSW,242,1.0,3.0,72,0.00,,,0.22,Wunderground v.1.13,2013-02-22 23:58:00,
2013-02-22 18:03:00,33.0,25.3,30.00,WSW,242,0.0,0.0,73,0.00,,,0.22,Wunderground v.1.13,2013-02-23 00:03:00,
2013-02-22 18:13:00,33.0,25.3,30.01,WSW,242,0.0,1.0,73,0.00,,,0.22,Wunderground v.1.13,2013-02-23 00:13:00,
2013-02-22 18:18:00,33.0,25.6,30.01,WSW,243,0.0,0.0,74,0.00,,,0.22,Wunderground v.1.13,2013-02-23 00:18:00,
2013-02-22 18:28:00,32.9,25.5,30.02,WSW,242,0.0,1.0,74,0.00,,,0.22,Wunderground v.1.13,2013-02-23 00:28:00,
2013-02-22 18:38:00,33.0,25.6,30.03,WSW,242,1.0,1.0,74,0.00,,,0.22,Wunderground v.1.13,2013-02-23 00:38:00,
2013-02-22 18:48:00,33.0,25.6,30.02,WSW,243,1.0,2.0,74,0.00,,,0.22,Wunderground v.1.13,2013-02-23 00:48:00,
2013-02-22 18:58:00,33.1,26.0,30.02,West,260,3.0,4.0,75,0.00,,,0.22,Wunderground v.1.13,2013-02-23 00:58:00,
2013-02-22 19:08:00,33.0,25.9,30.03,West,266,3.0,3.0,75,0.00,,,0.22,Wunderground v.1.13,2013-02-23 01:08:00,
2013-02-22 19:13:00,33.0,25.9,30.03,West,277,3.0,3.0,75,0.00,,,0.22,Wunderground v.1.13,2013-02-23 01:13:00,
2013-02-22 19:23:00,32.9,26.2,30.03,West,277,1.0,2.0,76,0.00,,,0.22,Wunderground v.1.13,2013-02-23 01:23:00,
2013-02-22 19:33:00,32.6,25.6,30.04,West,269,3.0,6.0,75,0.00,,,0.22,Wunderground v.1.13,2013-02-23 01:33:00,
2013-02-22 19:38:00,32.4,25.4,30.04,West,268,4.0,4.0,75,0.00,,,0.22,Wunderground v.1.13,2013-02-23 01:38:00,
2013-02-22 19:43:00,32.1,24.7,30.04,WNW,291,2.0,2.0,74,0.00,,,0.22,Wunderground v.1.13,2013-02-23 01:43:00,
2013-02-22 19:53:00,31.9,24.6,30.04,WNW,298,1.0,1.0,74,0.00,,,0.22,Wunderground v.1.13,2013-02-23 01:53:00,
2013-02-22 19:58:00,31.7,24.4,30.04,WNW,298,1.0,1.0,74,0.00,,,0.22,Wunderground v.1.13,2013-02-23 01:58:00,
2013-02-22 20:08:00,31.4,24.4,30.04,WNW,298,0.0,0.0,75,0.00,,,0.22,Wunderground v.1.13,2013-02-23 02:08:00,
2013-02-22 20:18:00,31.1,24.4,30.05,WNW,298,0.0,0.0,76,0.00,,,0.22,Wunderground v.1.13,2013-02-23 02:18:00,
2013-02-22 20:23:00,31.0,24.3,30.05,WNW,298,0.0,0.0,76,0.00,,,0.22,Wunderground v.1.13,2013-02-23 02:23:00,
2013-02-22 20:33:00,30.7,24.0,30.05,WNW,298,0.0,0.0,76,0.00,,,0.22,Wunderground v.1.13,2013-02-23 02:33:00,
2013-02-22 20:38:00,30.7,24.0,30.05,WNW,298,0.0,0.0,76,0.00,,,0.22,Wunderground v.1.13,2013-02-23 02:38:00,
2013-02-22 20:48:00,30.3,24.0,30.05,WNW,298,0.0,0.0,77,0.00,,,0.22,Wunderground v.1.13,2013-02-23 02:48:00,
2013-02-22 20:58:00,29.9,23.9,30.05,WNW,298,0.0,0.0,78,0.00,,,0.22,Wunderground v.1.13,2013-02-23 02:58:00,
2013-02-22 21:08:00,29.6,23.6,30.05,WNW,298,0.0,0.0,78,0.00,,,0.22,Wunderground v.1.13,2013-02-23 03:08:00,
2013-02-22 21:13:00,29.5,23.5,30.06,WNW,298,0.0,0.0,78,0.00,,,0.22,Wunderground v.1.13,2013-02-23 03:13:00,
2013-02-22 21:23:00,29.1,23.4,30.06,WNW,298,0.0,0.0,79,0.00,,,0.22,Wunderground v.1.13,2013-02-23 03:23:00,
2013-02-22 21:28:00,29.0,23.3,30.06,WNW,298,0.0,0.0,79,0.00,,,0.22,Wunderground v.1.13,2013-02-23 03:28:00,
2013-02-22 21:33:00,28.8,23.4,30.06,WNW,298,0.0,0.0,80,0.00,,,0.22,Wunderground v.1.13,2013-02-23 03:33:00,
2013-02-22 21:43:00,28.6,23.2,30.06,WNW,298,0.0,0.0,80,0.00,,,0.22,Wunderground v.1.13,2013-02-23 03:43:00,
2013-02-22 21:48:00,28.5,23.1,30.07,WNW,298,0.0,0.0,80,0.00,,,0.22,Wunderground v.1.13,2013-02-23 03:48:00,
2013-02-22 21:58:00,28.0,22.9,30.07,WNW,298,0.0,0.0,81,0.00,,,0.22,Wunderground v.1.13,2013-02-23 03:58:00,
2013-02-22 22:08:00,27.7,22.6,30.07,WNW,298,0.0,0.0,81,0.00,,,0.22,Wunderground v.1.13,2013-02-23 04:08:00,
2013-02-22 22:13:00,27.7,22.6,30.07,WNW,298,0.0,0.0,81,0.00,,,0.22,Wunderground v.1.13,2013-02-23 04:13:00,
2013-02-22 22:18:00,27.7,22.6,30.07,WNW,298,0.0,0.0,81,0.00,,,0.22,Wunderground v.1.13,2013-02-23 04:18:00,
2013-02-22 22:28:00,27.4,22.3,30.07,WNW,298,0.0,0.0,81,0.00,,,0.22,Wunderground v.1.13,2013-02-23 04:28:00,
2013-02-22 22:38:00,27.2,22.1,30.06,WNW,298,0.0,0.0,81,0.00,,,0.22,Wunderground v.1.13,2013-02-23 04:38:00,
2013-02-22 22:43:00,27.0,21.9,30.06,WNW,298,0.0,0.0,81,0.00,,,0.22,Wunderground v.1.13,2013-02-23 04:43:00,
2013-02-22 22:53:00,26.8,22.0,30.06,WNW,298,0.0,0.0,82,0.00,,,0.22,Wunderground v.1.13,2013-02-23 04:53:00,
2013-02-22 23:03:00,26.7,21.9,30.06,WNW,298,0.0,0.0,82,0.00,,,0.22,Wunderground v.1.13,2013-02-23 05:03:00,
2013-02-22 23:08:00,26.5,21.7,30.06,WNW,298,0.0,0.0,82,0.00,,,0.22,Wunderground v.1.13,2013-02-23 05:08:00,
2013-02-22 23:18:00,26.5,22.0,30.06,WNW,298,0.0,0.0,83,0.00,,,0.22,Wunderground v.1.13,2013-02-23 05:18:00,
2013-02-22 23:28:00,26.2,21.7,30.05,WNW,298,0.0,0.0,83,0.00,,,0.22,Wunderground v.1.13,2013-02-23 05:28:00,
2013-02-22 23:38:00,26.2,21.7,30.05,WNW,298,0.0,0.0,83,0.00,,,0.22,Wunderground v.1.13,2013-02-23 05:38:00,
2013-02-22 23:48:00,26.1,21.9,30.05,WNW,298,0.0,0.0,84,0.00,,,0.22,Wunderground v.1.13,2013-02-23 05:48:00,
2013-02-22 23:58:00,26.0,21.8,30.05,WNW,298,0.0,0.0,84,0.00,,,0.22,Wunderground v.1.13,2013-02-23 05:58:00,